Change the Weather History Date:

Tuesday, March 12, 2013

  Actual Average Record
Temperature  
Mean Temperature 15 °F -  
Max Temperature 22 °F 26 °F 56 °F (2012)
Min Temperature 4 °F 9 °F -13 °F (2009)
Degree Days  
Heating Degree Days 50    
Moisture  
Dew Point 12 °F    
Average Humidity 81    
Maximum Humidity 88    
Minimum Humidity 72    
Precipitation  
Precipitation 0.00 in - - ()
Sea Level Pressure  
Sea Level Pressure 30.10 in    
Wind  
Wind Speed 11 mph (NNW)    
Max Wind Speed 22 mph    
Max Gust Speed 29 mph    
Visibility 9 miles    
Events Snow    
Averages and records for this station are not official NWS values.
T = Trace of Precipitation, MM = Missing Value Source: NWS Daily Summary

Daily Weather History Graph

Daily Weather History Graph

Search for Another Location

Airport or City:

Trip Planner

Search our weather history database for the weather conditions in past years. The results will help you decide how hot, cold, wet, or windy it might be!

Date:

Astronomy

Mar. 12, 2013 Rise Set
Actual Time 7:48 AM CDT 7:31 PM CDT
Civil Twilight 7:17 AM CDT 8:01 PM CDT
Nautical Twilight 6:41 AM CDT 8:38 PM CDT
Astronomical Twilight 6:04 AM CDT 9:14 PM CDT
Moon 7:48 AM CDT (3/12) 8:57 PM CDT (3/12)
Length of Visible Light 12h 44m
Length of Day
11h 42m
New Moon, 1% of the Moon is Illuminated
Mar 12
New Moon
Mar 19
First Quarter
Mar 27
Full
Apr 2
Last Quarter
Apr 10
New

Hourly Weather History & Observations

Time (CDT) Temp. Windchill Dew Point Humidity Pressure Visibility Wind Dir Wind Speed Gust Speed Precip Events Conditions
12:07 AM 17.6 °F 8.2 °F 14.0 °F 86% 29.92 in 10.0 mi NNW 6.9 mph - N/A   Overcast
12:11 AM 17.6 °F 9.3 °F 14.0 °F 86% 29.93 in 10.0 mi NNW 5.8 mph - N/A   Overcast
12:17 AM 17.6 °F 7.3 °F 14.0 °F 86% 29.92 in 10.0 mi NNW 8.1 mph - N/A   Overcast
12:37 AM 17.6 °F 8.2 °F 14.0 °F 86% 29.93 in 10.0 mi NW 6.9 mph - N/A   Overcast
12:55 AM 16.3 °F 6.7 °F 13.3 °F 88% 29.94 in 10.0 mi NW 6.9 mph - N/A   Overcast
1:09 AM 15.8 °F 5.1 °F 12.2 °F 86% 29.94 in 10.0 mi NNW 8.1 mph - N/A Snow Light Snow
1:13 AM 15.8 °F 5.1 °F 12.2 °F 86% 29.94 in 10.0 mi NNW 8.1 mph - N/A   Overcast
1:55 AM 15.1 °F 3.3 °F 12.2 °F 88% 29.95 in 10.0 mi North 9.2 mph - 0.00 in   Clear
2:55 AM 14.5 °F 1.1 °F 10.8 °F 85% 29.98 in 10.0 mi NNW 11.5 mph - N/A   Overcast
3:02 AM 15.8 °F 2.7 °F 10.4 °F 79% 29.98 in 6.0 mi NNW 11.5 mph - N/A Snow Light Snow
3:04 AM 15.8 °F 2.1 °F 10.4 °F 79% 29.98 in 5.0 mi NNW 12.7 mph - N/A Snow Light Snow
3:33 AM 15.8 °F 0.9 °F 10.4 °F 79% 29.99 in 4.0 mi NNW 15.0 mph - N/A   Overcast
3:39 AM 15.8 °F 1.4 °F 10.4 °F 79% 29.99 in 4.0 mi NNW 13.8 mph - N/A   Overcast
3:55 AM 15.1 °F 1.1 °F 11.1 °F 84% 29.99 in 6.0 mi NNW 12.7 mph - 0.00 in   Overcast
4:02 AM 15.8 °F 2.7 °F 10.4 °F 79% 29.99 in 8.0 mi NNW 11.5 mph - N/A   Light Freezing Rain
4:09 AM 15.8 °F 2.7 °F 12.2 °F 86% 30.00 in 8.0 mi NNW 11.5 mph - N/A   Overcast
4:10 AM 15.8 °F 2.7 °F 12.2 °F 86% 30.00 in 8.0 mi NNW 11.5 mph - N/A   Overcast
4:13 AM 15.8 °F 2.7 °F 12.2 °F 86% 30.00 in 7.0 mi NNW 11.5 mph - N/A   Light Freezing Rain
4:17 AM 15.8 °F 3.4 °F 12.2 °F 86% 30.00 in 6.0 mi NNW 10.4 mph - N/A   Overcast
4:33 AM 15.8 °F 3.4 °F 12.2 °F 86% 30.00 in 7.0 mi NNW 10.4 mph - N/A Snow Light Snow
4:40 AM 15.8 °F 3.4 °F 12.2 °F 86% 30.00 in 8.0 mi NNW 10.4 mph - N/A   Overcast
4:55 AM 15.6 °F 3.2 °F 11.8 °F 85% 30.01 in 6.0 mi NNW 10.4 mph - 0.00 in Snow Light Snow
5:01 AM 15.8 °F 3.4 °F 12.2 °F 86% 30.01 in 4.0 mi NNW 10.4 mph - N/A   Overcast
5:02 AM 15.8 °F 4.2 °F 12.2 °F 86% 30.01 in 4.0 mi NNW 9.2 mph - N/A   Overcast
5:04 AM 15.8 °F 3.4 °F 12.2 °F 86% 30.01 in 4.0 mi NNW 10.4 mph - N/A   Overcast
5:20 AM 15.8 °F 3.4 °F 12.2 °F 86% 30.02 in 8.0 mi NNW 10.4 mph - N/A   Light Freezing Rain
5:23 AM 15.8 °F 4.2 °F 12.2 °F 86% 30.02 in 9.0 mi NNW 9.2 mph - N/A   Light Freezing Rain
5:28 AM 15.8 °F 3.4 °F 12.2 °F 86% 30.02 in 9.0 mi NNW 10.4 mph - N/A   Overcast
5:30 AM 15.8 °F 4.2 °F 12.2 °F 86% 30.02 in 8.0 mi NNW 9.2 mph - N/A   Light Freezing Rain
5:33 AM 15.8 °F 3.4 °F 12.2 °F 86% 30.02 in 7.0 mi NNW 10.4 mph - N/A   Light Freezing Rain
5:41 AM 15.8 °F 3.4 °F 12.2 °F 86% 30.03 in 7.0 mi NNW 10.4 mph - N/A Snow Light Snow
5:45 AM 15.8 °F 3.4 °F 12.2 °F 86% 30.03 in 8.0 mi NW 10.4 mph - N/A Snow Light Snow
5:47 AM 15.8 °F 3.4 °F 12.2 °F 86% 30.03 in 9.0 mi NNW 10.4 mph - N/A   Mostly Cloudy
5:55 AM 15.1 °F 1.8 °F 11.7 °F 86% 30.03 in 10.0 mi NNW 11.5 mph - 0.00 in   Mostly Cloudy
6:08 AM 15.8 °F 2.7 °F 10.4 °F 79% 30.04 in 10.0 mi NW 11.5 mph - N/A   Partly Cloudy
6:55 AM 12.9 °F -0.9 °F 9.0 °F 84% 30.06 in 10.0 mi NW 11.5 mph - N/A   Mostly Cloudy
7:55 AM 12.2 °F -1.8 °F 7.7 °F 82% 30.09 in 10.0 mi NW 11.5 mph - N/A   Mostly Cloudy
8:55 AM 13.3 °F -0.5 °F 9.0 °F 83% 30.10 in 10.0 mi NNW 11.5 mph - N/A   Mostly Cloudy
9:55 AM 16.9 °F 3.4 °F 11.3 °F 79% 30.13 in 10.0 mi NNW 12.7 mph - N/A   Scattered Clouds
10:55 AM 19.4 °F 5.0 °F 13.5 °F 78% 30.15 in 10.0 mi North 16.1 mph - N/A   Partly Cloudy
11:53 AM 21.2 °F 6.4 °F 14.0 °F 74% 30.17 in 10.0 mi North 18.4 mph - N/A   Mostly Cloudy
11:55 AM 21.4 °F 7.1 °F 14.5 °F 75% 30.17 in 10.0 mi North 17.3 mph - N/A   Scattered Clouds
12:55 PM 22.1 °F 6.4 °F 15.4 °F 76% 30.19 in 10.0 mi North 21.9 mph 28.8 mph N/A   Overcast
1:55 PM 21.6 °F 6.5 °F 15.3 °F 77% 30.21 in 10.0 mi North 19.6 mph 24.2 mph N/A   Mostly Cloudy
2:14 PM 21.2 °F 6.0 °F 15.8 °F 80% 30.21 in 10.0 mi NNW 19.6 mph - N/A   Overcast
2:27 PM 21.2 °F 6.4 °F 15.8 °F 80% 30.22 in 10.0 mi North 18.4 mph - N/A   Overcast
2:30 PM 21.2 °F 6.0 °F 15.8 °F 80% 30.22 in 10.0 mi North 19.6 mph - N/A   Overcast
2:51 PM 21.2 °F 6.4 °F 15.8 °F 80% 30.22 in 10.0 mi North 18.4 mph - N/A   Overcast
2:58 PM 21.2 °F 6.8 °F 14.0 °F 74% 30.22 in 10.0 mi NNW 17.3 mph - N/A   Overcast
3:12 PM 21.2 °F 6.0 °F 14.0 °F 74% 30.22 in 10.0 mi North 19.6 mph 24.2 mph N/A   Mostly Cloudy
3:18 PM 21.2 °F 7.3 °F 15.8 °F 80% 30.22 in 10.0 mi North 16.1 mph - N/A   Mostly Cloudy
3:26 PM 23.0 °F 9.2 °F 15.8 °F 74% 30.22 in 10.0 mi North 17.3 mph - N/A   Mostly Cloudy
3:55 PM 22.3 °F 9.7 °F 15.1 °F 74% 30.23 in 10.0 mi North 13.8 mph 24.2 mph N/A   Mostly Cloudy
4:55 PM 21.7 °F 8.0 °F 14.0 °F 72% 30.24 in 10.0 mi North 16.1 mph - N/A   Clear
5:22 PM 21.2 °F 8.3 °F 14.0 °F 74% 30.25 in 10.0 mi North 13.8 mph - N/A   Mostly Cloudy
5:34 PM 21.2 °F 8.3 °F 14.0 °F 74% 30.25 in 10.0 mi North 13.8 mph - N/A   Mostly Cloudy
5:40 PM 21.2 °F 8.3 °F 14.0 °F 74% 30.25 in 10.0 mi North 13.8 mph - N/A   Overcast
5:50 PM 21.2 °F 7.8 °F 14.0 °F 74% 30.26 in 10.0 mi North 15.0 mph - N/A   Overcast
5:54 PM 21.2 °F 10.1 °F 14.0 °F 74% 30.26 in 10.0 mi North 10.4 mph - N/A   Overcast
5:55 PM 21.4 °F 9.1 °F 14.4 °F 74% 30.26 in 10.0 mi North 12.7 mph - N/A   Overcast
6:09 PM 19.4 °F 7.9 °F 12.2 °F 74% 30.27 in 10.0 mi North 10.4 mph - N/A   Scattered Clouds
6:55 PM 17.8 °F 5.2 °F 10.8 °F 74% 30.28 in 10.0 mi North 11.5 mph - N/A   Clear
7:55 PM 15.8 °F 3.4 °F 8.8 °F 74% 30.30 in 10.0 mi NNW 10.4 mph - N/A   Clear
8:55 PM 12.0 °F 2.7 °F 5.9 °F 76% 30.32 in 10.0 mi NW 5.8 mph - N/A   Clear
9:55 PM 9.7 °F -1.3 °F 4.3 °F 79% 30.32 in 10.0 mi NW 6.9 mph - N/A   Clear
10:55 PM 7.2 °F -3.0 °F 2.1 °F 80% 30.32 in 10.0 mi NNW 5.8 mph - N/A   Clear
11:55 PM 4.8 °F -7.1 °F -0.4 °F 79% 30.33 in 10.0 mi NW 6.9 mph - N/A   Clear